This is the latest recevied weather packets stored in our database for station/object N3WMC. If no packets are shown the sender has not sent any weather packets the latest 10 day(s).
| Time | Temp. | Humidity | Pressure | Rain* | Wind** | Luminosity | Snow |
|---|---|---|---|---|---|---|---|
| 1788012809 | 21.67° C | 62% | 1025.8 hPa | 0 mm | - | 435 W/m² | - |
| 1788012504 | 21.67° C | 61% | 1025.9 hPa | 0 mm | - | 416 W/m² | - |
| 1788012204 | 21.67° C | 62% | 1025.7 hPa | 0 mm | - | 407 W/m² | - |
| 1788011902 | 21.11° C | 62% | 1025.8 hPa | 0 mm | - | 397 W/m² | - |
| 1788011601 | 20.56° C | 64% | 1025.6 hPa | 0 mm | - | 388 W/m² | - |
| 1788011298 | 20° C | 65% | 1025.7 hPa | 0 mm | - | 379 W/m² | - |
| 1788010995 | 20.56° C | 65% | 1025.9 hPa | 0 mm | - | 367 W/m² | - |
| 1788010691 | 20.56° C | 64% | 1025.7 hPa | 0 mm | - | 357 W/m² | - |
| 1788010389 | 21.11° C | 63% | 1025.9 hPa | 0 mm | - | 304 W/m² | - |
| 1788010084 | 21.11° C | 66% | 1025.9 hPa | 0 mm | - | 318 W/m² | - |
| 1788009779 | 20° C | 67% | 1025.7 hPa | 0 mm | - | 308 W/m² | - |
| 1788009477 | 20° C | 71% | 1025.7 hPa | 0 mm | - | 318 W/m² | - |
| 1788009173 | 20° C | 71% | 1025.9 hPa | 0 mm | - | 303 W/m² | - |
| 1788008868 | 19.44° C | 70% | 1025.6 hPa | 0 mm | - | 292 W/m² | - |
| 1788008563 | 18.89° C | 74% | 1025.9 hPa | 0 mm | - | 286 W/m² | - |
| 1788008260 | 18.89° C | 70% | 1025.8 hPa | 0 mm | - | 272 W/m² | - |
| 1788007959 | 18.33° C | 73% | 1025.7 hPa | 0 mm | - | 258 W/m² | - |
| 1788007657 | 17.78° C | 75% | 1025.7 hPa | 0 mm | - | 240 W/m² | - |
| 1788007353 | 16.67° C | 79% | 1025.7 hPa | 0 mm | - | 227 W/m² | - |
| 1788007047 | 16.11° C | 81% | 1025.6 hPa | 0 mm | - | 212 W/m² | - |
| 1788006746 | 15.56° C | 83% | 1026 hPa | 0 mm | - | 197 W/m² | - |
| 1788006441 | 15° C | 85% | 1025.8 hPa | 0 mm | - | 184 W/m² | - |
| 1788006140 | 14.44° C | 91% | 1025.8 hPa | 0 mm | - | 171 W/m² | - |
| 1788005840 | 14.44° C | 98% | 1026 hPa | 0 mm | - | 159 W/m² | - |
| 1788005534 | 13.89° C | 99% | 1025.9 hPa | 0 mm | - | 147 W/m² | - |
* Rain latest hour (hover to see other rain measurements)
** Current wind speed in m/s (hover to see current wind gust speed)